Cleveland, OH

6:55 PM EDT on September 27, 2016 (GMT -0400)
Burke Lakefront

Weather History for KBKL - January, 2000

Change the Weather History Date:

Monday, January 3, 2000

  Actual Average Record
Temperature  
Mean Temperature 47 °F -  
Max Temperature 57 °F 36 °F 62 °F (2004)
Min Temperature 37 °F 25 °F 10 °F (2014)
Degree Days  
Heating Degree Days 18    
Moisture  
Dew Point 41 °F    
Average Humidity 98    
Maximum Humidity 100    
Minimum Humidity 87    
Precipitation  
Precipitation 0.76 in - - ()
Sea Level Pressure  
Sea Level Pressure 29.89 in    
Wind  
Wind Speed 10 mph (NE)    
Max Wind Speed 24 mph    
Max Gust Speed 33 mph    
Visibility 3 miles    
Events Fog , Rain    
Averages and records for this station are not official NWS values.
T = Trace of Precipitation, MM = Missing Value Source: NWS Daily Summary

Daily Weather History Graph

Daily Weather History Graph

Search for Another Location

Airport or City:

Trip Planner

Search our weather history database for the weather conditions in past years. The results will help you decide how hot, cold, wet, or windy it might be!

Date:

Astronomy

Jan. 03, 2000 Rise Set
Actual Time 7:53 AM EST 5:08 PM EST
Civil Twilight 7:22 AM EST 5:40 PM EST
Nautical Twilight 6:47 AM EST 6:14 PM EST
Astronomical Twilight 6:13 AM EST 6:48 PM EST
Moon 5:00 AM EST (1/3) 3:09 PM EST (1/3)
Length of Visible Light 10h 17m
Length of Day
9h 15m
Waning Crescent, 8% of the Moon is Illuminated
Jan 3
Waning Crescent
Jan 6
New
Jan 14
First Quarter
Jan 20
Full
Jan 28
Last Quarter

Hourly Weather History & Observations

Time (EST) Temp. Windchill Dew Point Humidity Pressure Visibility Wind Dir Wind Speed Gust Speed Precip Events Conditions
12:53 AM 52.0 °F - 52.0 °F 100% 29.83 in 3.0 mi West 10.4 mph - 0.04 in Rain Light Rain
1:14 AM 51.8 °F - 51.8 °F 100% 29.84 in 1.8 mi West 10.4 mph - 0.00 in Rain Light Rain
1:36 AM 50.0 °F - 50.0 °F 100% 29.85 in 0.8 mi SSW 10.4 mph - 0.00 in Rain Light Rain
1:41 AM 51.8 °F - 50.0 °F 94% 29.85 in 2.0 mi SW 9.2 mph - 0.00 in Rain Light Rain
1:53 AM 55.0 °F - 53.1 °F 93% 29.86 in 10.0 mi SW 12.7 mph - 0.00 in   Overcast
2:53 AM 52.0 °F - 48.9 °F 89% 29.90 in 10.0 mi WSW 10.4 mph - N/A   Overcast
3:53 AM 45.0 °F 40.6 °F 43.0 °F 93% 29.93 in 6.0 mi SW 8.1 mph - N/A   Overcast
4:53 AM 43.0 °F 38.8 °F 42.1 °F 97% 29.94 in 5.0 mi SW 6.9 mph - N/A   Mostly Cloudy
5:36 AM 41.0 °F 39.0 °F 39.2 °F 93% 29.97 in 5.0 mi NNW 3.5 mph - N/A   Overcast
5:53 AM 39.9 °F 35.8 °F 39.9 °F 100% 29.98 in 4.0 mi NE 5.8 mph - N/A   Overcast
6:18 AM 39.2 °F 33.6 °F 39.2 °F 100% 29.99 in 2.5 mi NNE 8.1 mph - N/A   Overcast
6:35 AM 39.2 °F 32.5 °F 39.2 °F 100% 30.01 in 3.0 mi NNE 10.4 mph - N/A   Overcast
6:53 AM 39.0 °F 31.8 °F 37.9 °F 96% 30.02 in 3.0 mi NNE 11.5 mph - N/A   Overcast
7:30 AM 39.2 °F 31.6 °F 37.4 °F 93% 30.01 in 4.0 mi NE 12.7 mph - N/A   Overcast
7:53 AM 39.0 °F 31.4 °F 37.9 °F 96% 30.02 in 5.0 mi NE 12.7 mph - N/A   Overcast
8:53 AM 37.9 °F 30.5 °F 37.0 °F 97% 30.04 in 4.0 mi NNE 11.5 mph - N/A   Overcast
9:53 AM 37.9 °F 30.5 °F 37.0 °F 97% 30.03 in 7.0 mi NNE 11.5 mph - N/A   Overcast
10:38 AM 37.4 °F 29.8 °F 37.4 °F 100% 29.99 in 4.0 mi NNE 11.5 mph - N/A   Overcast
10:53 AM 37.9 °F 30.9 °F 37.0 °F 97% 30.02 in 4.0 mi NNE 10.4 mph - 0.00 in   Overcast
11:33 AM 37.4 °F 30.8 °F 37.4 °F 100% 29.98 in 2.5 mi NE 9.2 mph - 0.00 in Rain Light Rain
11:53 AM 37.9 °F 33.5 °F 37.9 °F 100% 30.01 in 2.5 mi NNE 5.8 mph - 0.00 in   Overcast
12:03 PM 37.4 °F 30.8 °F 37.4 °F 100% 29.98 in 2.5 mi NE 9.2 mph - N/A   Overcast
12:21 PM 37.4 °F 30.3 °F 37.4 °F 100% 29.97 in 2.0 mi NE 10.4 mph - 0.00 in Rain Light Rain
12:40 PM 39.2 °F 35.0 °F 39.2 °F 100% 29.93 in 2.5 mi ENE 5.8 mph - 0.00 in   Scattered Clouds
12:53 PM 41.0 °F 38.0 °F 39.9 °F 96% 29.93 in 3.0 mi North 4.6 mph - 0.00 in Rain Light Rain
1:02 PM 37.4 °F 30.8 °F 37.4 °F 100% 29.92 in 2.0 mi NNE 9.2 mph - 0.00 in Rain Light Rain
1:09 PM 37.4 °F 30.8 °F 37.4 °F 100% 29.91 in 1.8 mi NNE 9.2 mph - 0.00 in Rain Light Rain
1:16 PM 37.4 °F 30.8 °F 37.4 °F 100% 29.91 in 1.5 mi NE 9.2 mph - 0.00 in Rain Light Rain
1:28 PM 39.2 °F 35.9 °F 37.4 °F 93% 29.92 in 1.8 mi East 4.6 mph - 0.01 in Rain Light Rain
1:53 PM 39.0 °F 34.8 °F 39.0 °F 100% 29.94 in 1.2 mi NE 5.8 mph - 0.03 in Rain Light Rain
2:17 PM 37.4 °F 30.3 °F 37.4 °F 100% 29.90 in 0.8 mi NE 10.4 mph - 0.03 in Rain Light Rain
2:36 PM 37.4 °F 30.3 °F 37.4 °F 100% 29.89 in 1.0 mi NE 10.4 mph - 0.03 in Rain Light Rain
2:53 PM 37.9 °F 30.9 °F 37.9 °F 100% 29.90 in 1.0 mi NE 10.4 mph - 0.03 in Rain Light Rain
3:27 PM 37.4 °F 30.3 °F 37.4 °F 100% 29.90 in 0.8 mi NE 10.4 mph - 0.04 in Rain Rain
3:53 PM 37.9 °F 30.9 °F 37.9 °F 100% 29.91 in 0.8 mi NE 10.4 mph - 0.12 in Rain Rain
4:03 PM 37.4 °F 29.8 °F 37.4 °F 100% 29.89 in 0.8 mi NE 11.5 mph - 0.02 in Rain Rain
4:39 PM 39.2 °F 33.0 °F 39.2 °F 100% 29.86 in 0.5 mi NE 9.2 mph - 0.08 in Fog , Rain Light Rain
4:53 PM 39.0 °F 31.8 °F 39.0 °F 100% 29.85 in 0.8 mi NE 11.5 mph - 0.10 in Rain Light Rain
5:03 PM 37.4 °F 29.8 °F 37.4 °F 100% 29.83 in 1.0 mi NE 11.5 mph - 0.01 in Rain Light Rain
5:24 PM 39.2 °F 33.0 °F 39.2 °F 100% 29.81 in 1.0 mi NNE 9.2 mph - 0.01 in Rain Light Rain
5:33 PM 39.2 °F 32.0 °F 39.2 °F 100% 29.81 in 1.2 mi NNE 11.5 mph - 0.03 in Rain Rain
5:53 PM 39.0 °F 32.8 °F 39.0 °F 100% 29.83 in 2.0 mi NNE 9.2 mph - 0.03 in Rain Light Rain
6:08 PM 37.4 °F 29.3 °F 37.4 °F 100% 29.79 in 1.8 mi NNE 12.7 mph - 0.02 in Rain Light Rain
6:32 PM 37.4 °F 30.8 °F 37.4 °F 100% 29.77 in 2.0 mi NE 9.2 mph - 0.02 in Rain Light Rain
6:53 PM 39.0 °F 32.8 °F 39.0 °F 100% 29.80 in 2.5 mi NNE 9.2 mph - 0.02 in Rain Light Rain
7:53 PM 45.0 °F - 45.0 °F 100% 29.73 in 3.0 mi Calm Calm - 0.05 in Rain Light Rain
8:53 PM 53.1 °F - 52.0 °F 96% 29.71 in 7.0 mi South 18.4 mph 24.2 mph 0.05 in Rain Rain
9:53 PM 57.0 °F - 54.0 °F 89% 29.65 in 8.0 mi South 20.7 mph 27.6 mph 0.13 in Rain Light Rain
10:53 PM 57.0 °F - 53.1 °F 87% 29.60 in 10.0 mi South 24.2 mph 32.2 mph 0.06 in Rain Light Rain
11:53 PM 57.0 °F - 54.0 °F 89% 29.55 in 9.0 mi SSE 24.2 mph 33.4 mph 0.10 in Rain Light Rain